2023/02/10 00:00:00,88.3,-0.4
2023/02/10 00:10:00,88.2,-0.4
2023/02/10 00:20:00,88.2,-0.3
2023/02/10 00:30:00,88.2,-0.2
2023/02/10 00:40:00,88.2,-0.1
2023/02/10 00:50:00,88.2,-0.3
2023/02/10 01:00:00,88.2,-0.4
2023/02/10 01:10:00,88.2,-0.4
2023/02/10 01:20:00,88.2,-0.3
2023/02/10 01:30:00,88.2,-0.3
2023/02/10 01:40:00,88.2,-0.2
2023/02/10 01:50:00,88.2,-0.2
2023/02/10 02:00:00,88.2,-0.2
2023/02/10 02:10:00,88.1,-0.1
2023/02/10 02:20:00,88.2, 0.0
2023/02/10 02:30:00,88.1,-0.1
2023/02/10 02:40:00,88.1, 0.0
2023/02/10 02:50:00,88.0, 0.3
2023/02/10 03:00:00,88.0, 0.3
2023/02/10 03:10:00,87.9, 0.3
2023/02/10 03:20:00,87.9, 0.6
2023/02/10 03:30:00,87.9, 0.8
2023/02/10 03:40:00,88.0, 0.8
2023/02/10 03:50:00,88.2, 0.6
2023/02/10 04:00:00,87.9, 0.4
2023/02/10 04:10:00,87.8, 0.4
2023/02/10 04:20:00,87.8, 0.5
2023/02/10 04:30:00,87.8, 0.4
2023/02/10 04:40:00,87.8, 0.3
2023/02/10 04:50:00,87.7, 0.7
2023/02/10 05:00:00,87.7, 1.4
2023/02/10 05:10:00,87.6, 1.3
2023/02/10 05:20:00,87.5, 2.5
2023/02/10 05:30:00,87.6, 3.3
2023/02/10 05:40:00,87.5, 3.0
2023/02/10 05:50:00,87.4, 2.6
2023/02/10 06:00:00,87.4, 1.8
2023/02/10 06:10:00,87.3, 2.1
2023/02/10 06:20:00,87.2, 2.0
2023/02/10 06:30:00,87.2, 1.8
2023/02/10 06:40:00,87.2, 2.2
2023/02/10 06:50:00,87.2, 2.4
2023/02/10 07:00:00,87.2, 2.6
2023/02/10 07:10:00,87.1, 2.6
2023/02/10 07:20:00,87.1, 2.4
2023/02/10 07:30:00,87.1, 2.4
2023/02/10 07:40:00,87.1, 2.3
2023/02/10 07:50:00,87.0, 2.3
2023/02/10 08:00:00,87.0, 2.4
2023/02/10 08:10:00,86.8, 2.3
2023/02/10 08:20:00,86.8, 2.1
2023/02/10 08:30:00,86.8, 2.2
2023/02/10 08:40:00,86.8, 2.4
2023/02/10 08:50:00,86.8, 2.7
2023/02/10 09:00:00,86.8, 2.7
2023/02/10 09:10:00,86.9, 3.2
2023/02/10 09:20:00,86.9, 3.2
2023/02/10 09:30:00,86.8, 3.3
2023/02/10 09:40:00,86.9, 3.4
2023/02/10 09:50:00,86.7, 3.5
2023/02/10 10:00:00,86.9, 3.7
2023/02/10 10:10:00,86.9, 3.8
2023/02/10 10:20:00,86.8, 3.9
2023/02/10 10:30:00,86.5, 4.0
2023/02/10 10:40:00,86.5, 3.5
2023/02/10 10:50:00,86.5, 3.2
2023/02/10 11:00:00,86.2, 3.2
2023/02/10 11:10:00,86.0, 3.2
2023/02/10 11:20:00,85.9, 3.1
2023/02/10 11:30:00,85.8, 3.0
2023/02/10 11:40:00,85.7, 3.4
2023/02/10 11:50:00,85.5, 3.4
2023/02/10 12:00:00,85.4, 3.4
2023/02/10 12:10:00,85.4, 3.5
2023/02/10 12:20:00,85.5, 3.8
2023/02/10 12:30:00,85.4, 3.4
2023/02/10 12:40:00,85.3, 3.2
2023/02/10 12:50:00,85.2, 3.7
2023/02/10 13:00:00,85.1, 3.4
2023/02/10 13:10:00,85.2, 3.7
2023/02/10 13:20:00,85.2, 3.9
2023/02/10 13:30:00,85.2, 3.7
2023/02/10 13:40:00,85.3, 3.8
2023/02/10 13:50:00,85.3, 3.7
2023/02/10 14:00:00,85.2, 3.7
2023/02/10 14:10:00,85.3, 4.0
2023/02/10 14:20:00,85.3, 4.0
2023/02/10 14:30:00,85.2, 4.0
2023/02/10 14:40:00,85.3, 4.3
2023/02/10 14:50:00,85.1, 3.9
2023/02/10 15:00:00,85.1, 3.7
2023/02/10 15:10:00,85.1, 3.4
2023/02/10 15:20:00,85.1, 3.5
2023/02/10 15:30:00,85.1, 3.9
2023/02/10 15:40:00,85.1, 3.9
2023/02/10 15:50:00,85.1, 4.3
2023/02/10 16:00:00,85.0, 4.0
2023/02/10 16:10:00,85.0, 4.3
2023/02/10 16:20:00,85.0, 3.9
2023/02/10 16:30:00,84.9, 3.8
2023/02/10 16:40:00,84.9, 3.4
2023/02/10 16:50:00,84.9, 3.4
2023/02/10 17:00:00,84.9, 3.0
2023/02/10 17:10:00,84.9, 2.8
2023/02/10 17:20:00,85.0, 3.2
2023/02/10 17:30:00,85.0, 2.8
2023/02/10 17:40:00,85.0, 2.6
2023/02/10 17:50:00,85.0, 2.4
2023/02/10 18:00:00,85.0, 2.5
2023/02/10 18:10:00,85.0, 2.5
2023/02/10 18:20:00,85.0, 2.4
2023/02/10 18:30:00,85.0, 2.3
2023/02/10 18:40:00,85.0, 2.5
2023/02/10 18:50:00,85.1, 2.1
2023/02/10 19:00:00,85.0, 2.3
2023/02/10 19:10:00,85.2, 2.4
2023/02/10 19:20:00,85.2, 2.2
2023/02/10 19:30:00,85.3, 2.2
2023/02/10 19:40:00,85.1, 1.7
2023/02/10 19:50:00,84.8, 2.2
2023/02/10 20:00:00,84.8, 2.2
2023/02/10 20:10:00,84.8, 2.6
2023/02/10 20:20:00,84.7, 2.8
2023/02/10 20:30:00,84.7, 2.6
2023/02/10 20:40:00,84.8, 2.9
2023/02/10 20:50:00,84.7, 4.1
2023/02/10 21:00:00,84.3, 4.8
2023/02/10 21:10:00,84.3, 4.2
2023/02/10 21:20:00,84.3, 4.2
2023/02/10 21:30:00,84.3, 4.4
2023/02/10 21:40:00,84.3, 3.8
2023/02/10 21:50:00,84.2, 4.5
2023/02/10 22:00:00,84.1, 4.7
2023/02/10 22:10:00,84.1, 4.7
2023/02/10 22:20:00,84.1, 4.7
2023/02/10 22:30:00,84.2, 4.7
2023/02/10 22:40:00,84.3, 4.1
2023/02/10 22:50:00,84.2, 4.6
2023/02/10 23:00:00,84.1, 4.3
2023/02/10 23:10:00,83.9, 4.3
2023/02/10 23:20:00,83.8, 4.5
2023/02/10 23:30:00,84.0, 4.5
2023/02/10 23:40:00,84.0, 4.1
2023/02/10 23:50:00,83.9, 4.4
